Overview Statistics Trail Chart Weather Telemetry Raw packets
 

This is the latest recevied weather packets stored in our database for station/object KQ7A. If no packets are shown the sender has not sent any weather packets the latest 10 day(s).

<< 43 44 45 46 47 48 49 >>
Time Temp. Humidity Pressure Rain* Wind** Luminosity Snow
1788385855 21.67° C 26% 1017.4 hPa 0 mm - 644 W/m² -
1788385550 21.67° C 26% 1017.3 hPa 0 mm - 661 W/m² -
1788385249 21.67° C 25% 1017.5 hPa 0 mm - 675 W/m² -
1788384945 21.11° C 26% 1017.4 hPa 0 mm - 707 W/m² -
1788384644 21.67° C 26% 1017.4 hPa 0 mm - 722 W/m² -
1788384340 21.67° C 27% 1017.3 hPa 0 mm - 730 W/m² -
1788384036 21.11° C 26% 1017.1 hPa 0 mm - 741 W/m² -
1788383732 21.67° C 25% 1017.1 hPa 0 mm - 744 W/m² -
1788383426 21.11° C 26% 1017.1 hPa 0 mm - 745 W/m² -
1788383121 21.67° C 27% 1016.8 hPa 0 mm - 754 W/m² -
1788382820 21.67° C 26% 1017.1 hPa 0 mm - 772 W/m² -
1788382514 21.67° C 27% 1017 hPa 0 mm - 793 W/m² -
1788382210 21.67° C 28% 1016.8 hPa 0 mm - 795 W/m² -
1788381909 21.67° C 25% 1016.9 hPa 0 mm - 787 W/m² -
1788381605 21.11° C 27% 1017.4 hPa 0 mm - 768 W/m² -
1788381300 21.11° C 27% 1016.8 hPa 0 mm - 757 W/m² -
1788380998 22.22° C 28% 1017.3 hPa 0 mm - 787 W/m² -
1788380695 21.67° C 28% 1017 hPa 0 mm - 794 W/m² -
1788380392 22.22° C 26% 1017.8 hPa 0 mm - 812 W/m² -
1788380087 21.11° C 26% 1017.4 hPa 0 mm - 818 W/m² -
1788379786 20.56° C 27% 1017.1 hPa 0 mm - 832 W/m² -
1788379481 21.11° C 27% 1017.4 hPa 0 mm - 876 W/m² -
1788379177 21.67° C 28% 1017.4 hPa 0 mm - 835 W/m² -
1788378872 20.56° C 30% 1017.4 hPa 0 mm - 869 W/m² -
1788378571 20.56° C 30% 1017.1 hPa 0 mm - 878 W/m² -

* Rain latest hour (hover to see other rain measurements)
** Current wind speed in m/s (hover to see current wind gust speed)